Location: Newark
(25.0000°N, 73.5000°E)
Time: 19:17:56
(UTC+00:00)

Vanguard 3 - All Passes

Search period start: 04 March 2021 00:00
Search period end: 14 March 2021 00:00
Orbit: 508 x 3262 km, 33.4° (Epoch: 04 March)

Date Brightness Start Highest point End Pass type
(mag) Time Alt. Az. Time Alt. Az. Time Alt. Az.
04 Mar - 05:06:16 10° SSE 05:15:56 17° SE 05:26:33 10° E daylight
04 Mar - 07:13:30 10° SSW 07:31:13 51° SE 07:48:53 10° ENE daylight
04 Mar - 09:27:52 10° WSW 09:48:13 88° NNW 10:03:59 10° ENE daylight
04 Mar - 11:47:01 10° W 12:05:40 62° N 12:17:15 10° ENE daylight
04 Mar - 14:07:12 10° WNW 14:21:47 65° NNE 14:29:45 10° E visible
04 Mar - 16:25:11 10° WNW 16:34:56 55° SW 16:40:29 10° SE visible
05 Mar - 05:59:42 10° SSW 06:14:31 35° SE 06:31:03 10° E daylight
05 Mar - 08:11:16 10° SW 08:30:41 75° SSE 08:48:25 10° ENE daylight
05 Mar - 10:28:16 10° W 10:48:22 71° NNW 11:02:32 10° ENE daylight
05 Mar - 12:48:31 10° WNW 13:05:39 61° N 13:15:38 10° E daylight
05 Mar - 15:07:38 10° WNW 15:20:34 89° SSW 15:27:29 10° ESE visible
05 Mar - 17:25:57 10° W 17:31:53 21° SW 17:36:04 10° S visible
06 Mar - 04:48:00 10° S 04:58:26 20° SE 05:10:31 10° E daylight
06 Mar - 06:56:02 10° SW 07:13:24 57° SE 07:31:57 10° ENE daylight
06 Mar - 09:10:29 10° WSW 09:30:40 83° NNW 09:47:20 10° ENE daylight
06 Mar - 11:29:31 10° W 11:48:42 63° N 12:01:06 10° ENE daylight
06 Mar - 13:49:31 10° WNW 14:05:13 72° NNE 14:13:51 10° E visible
06 Mar - 16:07:54 10° WNW 16:18:22 48° SW 16:24:21 10° SE visible
07 Mar - 05:42:12 10° SSW 05:56:46 39° SE 06:14:07 10° ENE daylight
07 Mar - 07:53:58 10° SW 08:12:55 81° SSE 08:31:30 10° ENE daylight
07 Mar - 10:10:54 10° W 10:31:05 69° NNW 10:46:06 10° ENE daylight
07 Mar - 12:30:52 10° WNW 12:48:54 64° N 12:59:38 10° E daylight
07 Mar - 14:50:01 10° WNW 15:03:58 80° SSW 15:11:29 10° ESE visible
07 Mar - 17:09:16 10° W 17:15:13 19° SW 17:19:30 10° S visible
08 Mar - 04:30:10 10° S 04:40:54 23° SE 04:54:01 10° E daylight
08 Mar - 06:38:47 10° SW 06:55:35 62° SE 07:14:49 10° ENE daylight
08 Mar - 08:53:16 10° WSW 09:13:06 79° NNW 09:30:36 10° ENE daylight
08 Mar - 11:12:02 10° W 11:31:41 63° N 11:44:54 10° ENE daylight
08 Mar - 13:31:47 10° WNW 13:48:31 78° NNE 13:57:52 10° ESE visible
08 Mar - 15:50:32 10° WNW 16:01:40 43° SW 16:08:09 10° SSE visible
09 Mar - 05:24:55 10° SSW 05:39:01 43° SE 05:56:57 10° ENE daylight
09 Mar - 07:36:51 10° WSW 07:55:11 86° SSE 08:14:29 10° ENE daylight
09 Mar - 09:53:39 10° W 10:13:47 67° N 10:29:38 10° ENE daylight
09 Mar - 12:13:13 10° WNW 12:32:01 68° N 12:43:35 10° E daylight
09 Mar - 14:32:19 10° WNW 14:47:15 72° SSW 14:55:24 10° SE visible
09 Mar - 16:52:38 10° W 16:58:26 17° SW 17:02:47 10° SSW visible
10 Mar - 04:12:40 10° S 04:23:22 26° SE 04:37:11 10° E daylight
10 Mar - 06:21:43 10° SW 06:37:48 68° SE 06:57:34 10° ENE daylight
10 Mar - 08:36:11 10° WSW 08:55:33 76° NNW 09:13:47 10° ENE daylight
10 Mar - 10:54:37 10° W 11:14:35 64° N 11:28:38 10° E daylight
10 Mar - 13:14:00 10° WNW 13:31:42 84° NNE 13:41:48 10° ESE visible
10 Mar - 15:33:08 10° WNW 15:44:49 38° SW 15:51:50 10° SSE visible
11 Mar - 03:04:51 10° SE 03:08:22 11° SE 03:12:15 10° ESE daylight
11 Mar - 05:07:52 10° SSW 05:21:19 47° SE 05:39:37 10° ENE daylight
11 Mar - 07:19:54 10° WSW 07:37:29 89° NNW 07:57:20 10° ENE daylight
11 Mar - 09:36:29 10° W 09:56:26 66° N 10:13:04 10° ENE daylight
11 Mar - 11:55:34 10° WNW 12:15:02 71° NNE 12:27:26 10° E daylight
11 Mar - 14:14:35 10° WNW 14:30:21 65° SW 14:39:12 10° SE visible
11 Mar - 16:36:06 10° W 16:41:35 15° SW 16:45:50 10° SSW visible
12 Mar - 03:55:26 10° S 04:05:50 29° SE 04:20:07 10° E daylight
12 Mar - 06:04:51 10° SW 06:20:06 73° SSE 06:40:11 10° ENE daylight
12 Mar - 08:19:15 10° W 08:38:01 73° NNW 08:56:53 10° ENE daylight
12 Mar - 10:37:15 10° WNW 10:57:24 66° N 11:12:18 10° E daylight
12 Mar - 12:56:13 10° WNW 13:14:43 89° SSW 13:25:38 10° ESE daylight
12 Mar - 15:15:44 10° WNW 15:27:52 35° SW 15:35:22 10° SSE visible
13 Mar - 02:46:07 10° SSE 02:51:09 13° SE 02:57:03 10° ESE daylight
13 Mar - 04:50:58 10° SSW 05:03:42 52° SE 05:22:07 10° ENE daylight
13 Mar - 07:03:07 10° WSW 07:19:53 84° NNW 07:40:05 10° ENE daylight
13 Mar - 09:19:26 10° W 09:39:04 66° N 09:56:27 10° ENE daylight
13 Mar - 11:37:57 10° WNW 11:57:55 76° NNE 12:11:12 10° ESE daylight
13 Mar - 13:56:51 10° WNW 14:13:18 59° SW 14:22:54 10° SE visible
13 Mar - 16:19:47 10° W 16:24:38 13° SW 16:28:36 10° SSW visible
